Вернуться в каталог

COSMOS 970 DEB

АктивенLEO
NORAD 12867·DEBRIS·🇷🇺 Russia

Запущен Dec 21, 1977 с Baikonur Cosmodrome

Loading…

Ближайшие Пролёты (ближайшие 24 часа)

TLE

СвежийSource: Space-Track

Эпоха: Sep 14, 2026, 04:55 UTC

1 12867U 77121AV  26257.20510231  .00000214  00000-0  53880-3 0  9992
2 12867  65.9475 181.8938 0079309 146.7652   1.4694 13.37071124298258

Отслеживайте COSMOS 970 DEB в реальном времени с AllMySat

Download on the App Store